Peru, IL

8:20 AM CDT on March 28, 2017 (GMT -0500)
Illinois Valley Regional-Duncan

Weather History for KVYS - November, 2011

Change the Weather History Date:

Sunday, November 20, 2011

  Actual Average Record
Temperature  
Mean Temperature 44 °F -  
Max Temperature 48 °F 48 °F 69 °F (2003)
Min Temperature 40 °F 30 °F 10 °F (2014)
Degree Days  
Heating Degree Days 21    
Moisture  
Dew Point 35 °F    
Average Humidity 73    
Maximum Humidity 87    
Minimum Humidity 65    
Precipitation  
Precipitation 0.00 in - - ()
Sea Level Pressure  
Sea Level Pressure 30.19 in    
Wind  
Wind Speed 12 mph (North)    
Max Wind Speed 20 mph    
Max Gust Speed 28 mph    
Visibility 10 miles    
Events      
Averages and records for this station are not official NWS values.
T = Trace of Precipitation, MM = Missing Value Source: NWS Daily Summary

Daily Weather History Graph

Daily Weather History Graph

Search for Another Location

Airport or City:

Trip Planner

Search our weather history database for the weather conditions in past years. The results will help you decide how hot, cold, wet, or windy it might be!

Date:

Astronomy

Nov. 20, 2011 Rise Set
Actual Time 6:50 AM CST 4:33 PM CST
Civil Twilight 6:20 AM CST 5:03 PM CST
Nautical Twilight 5:46 AM CST 5:37 PM CST
Astronomical Twilight 5:13 AM CST 6:10 PM CST
Moon 1:15 AM CST (11/20) 1:25 PM CST (11/20)
Length of Visible Light 10h 42m
Length of Day
9h 42m
Waning Crescent, 27% of the Moon is Illuminated
Nov 20
Waning Crescent
Nov 25
New
Dec 2
First Quarter
Dec 10
Full
Dec 17
Last Quarter

Hourly Weather History & Observations

Time (CST) Temp. Windchill Dew Point Humidity Pressure Visibility Wind Dir Wind Speed Gust Speed Precip Events Conditions
12:15 AM 48.2 °F - 41.0 °F 76% 29.98 in 10.0 mi WNW 13.8 mph 27.6 mph N/A   Mostly Cloudy
12:35 AM 45.7 °F 38.0 °F 39.7 °F 80% 29.99 in 10.0 mi West 19.6 mph 25.3 mph N/A   Overcast
12:55 AM 44.8 °F 37.4 °F 39.0 °F 80% 30.01 in 10.0 mi WNW 17.3 mph 23.0 mph N/A   Overcast
1:15 AM 44.1 °F 36.8 °F 37.8 °F 78% 30.02 in 10.0 mi West 16.1 mph 26.5 mph N/A   Overcast
1:35 AM 44.1 °F 37.1 °F 37.0 °F 76% 30.04 in 10.0 mi WNW 15.0 mph 18.4 mph N/A   Overcast
1:55 AM 43.2 °F 35.6 °F 35.8 °F 75% 30.04 in 10.0 mi West 16.1 mph 20.7 mph N/A   Overcast
2:15 AM 43.2 °F 35.6 °F 35.6 °F 75% 30.05 in 10.0 mi West 16.1 mph 19.6 mph N/A   Overcast
2:35 AM 43.2 °F 35.9 °F 35.8 °F 75% 30.06 in 10.0 mi WNW 15.0 mph - N/A   Overcast
2:55 AM 42.4 °F 35.7 °F 35.6 °F 77% 30.07 in 10.0 mi WNW 12.7 mph - N/A   Overcast
3:15 AM 42.1 °F 34.2 °F 35.4 °F 77% 30.08 in 10.0 mi WNW 16.1 mph 20.7 mph N/A   Overcast
3:35 AM 41.9 °F 34.6 °F 35.1 °F 77% 30.09 in 10.0 mi WNW 13.8 mph - N/A   Overcast
3:55 AM 41.5 °F 34.6 °F 34.9 °F 77% 30.11 in 10.0 mi WNW 12.7 mph - N/A   Overcast
4:15 AM 41.5 °F 35.0 °F 35.6 °F 79% 30.12 in 10.0 mi WNW 11.5 mph - N/A   Overcast
4:35 AM 41.5 °F 35.4 °F 35.6 °F 79% 30.12 in 10.0 mi NW 10.4 mph - N/A   Overcast
4:55 AM 41.5 °F 34.6 °F 35.6 °F 79% 30.13 in 10.0 mi NNW 12.7 mph - N/A   Overcast
5:15 AM 41.0 °F 34.7 °F 35.6 °F 81% 30.14 in 10.0 mi NNW 10.4 mph - N/A   Overcast
5:35 AM 41.0 °F 35.2 °F 35.6 °F 81% 30.14 in 10.0 mi NNW 9.2 mph - N/A   Overcast
5:55 AM 41.5 °F 36.4 °F 35.6 °F 79% 30.14 in 10.0 mi NNW 8.1 mph - N/A   Overcast
6:15 AM 41.0 °F 35.2 °F 35.6 °F 81% 30.15 in 10.0 mi North 9.2 mph - N/A   Overcast
6:55 AM 41.4 °F 36.8 °F 36.3 °F 82% 30.16 in 10.0 mi NNW 6.9 mph - N/A   Overcast
7:15 AM 40.3 °F 37.1 °F 35.6 °F 83% 30.18 in 10.0 mi NNW 4.6 mph - N/A   Overcast
7:35 AM 41.5 °F 38.6 °F 36.5 °F 82% 30.19 in 10.0 mi North 4.6 mph - N/A   Overcast
7:55 AM 41.0 °F 38.0 °F 37.4 °F 87% 30.20 in 10.0 mi NNW 4.6 mph - N/A   Overcast
8:15 AM 41.5 °F 39.6 °F 36.1 °F 81% 30.22 in 10.0 mi North 3.5 mph - N/A   Overcast
8:35 AM 42.1 °F 40.2 °F 36.3 °F 80% 30.24 in 10.0 mi NNE 3.5 mph - N/A   Overcast
8:55 AM 43.0 °F 38.2 °F 34.9 °F 73% 30.25 in 10.0 mi NE 8.1 mph - N/A   Overcast
9:15 AM 43.2 °F 38.4 °F 34.7 °F 72% 30.25 in 10.0 mi NNE 8.1 mph - N/A   Overcast
9:35 AM 43.5 °F 38.3 °F 34.3 °F 70% 30.26 in 10.0 mi North 9.2 mph - N/A   Overcast
9:55 AM 44.2 °F 38.4 °F 34.3 °F 68% 30.25 in 10.0 mi NNE 11.5 mph - N/A   Overcast
10:15 AM 44.1 °F 37.7 °F 34.5 °F 69% 30.24 in 10.0 mi NE 12.7 mph - N/A   Mostly Cloudy
10:35 AM 44.6 °F 38.8 °F 34.3 °F 67% 30.25 in 10.0 mi NNE 11.5 mph - N/A   Mostly Cloudy
10:55 AM 44.4 °F 38.2 °F 34.2 °F 67% 30.25 in 10.0 mi NNE 12.7 mph - N/A   Overcast
11:15 AM 44.6 °F 39.2 °F 33.8 °F 66% 30.25 in 10.0 mi NNE 10.4 mph - N/A   Scattered Clouds
11:35 AM 45.7 °F 41.0 °F 34.3 °F 65% 30.25 in 10.0 mi NNE 9.2 mph - N/A   Mostly Cloudy
11:55 AM 44.6 °F 38.8 °F 33.8 °F 66% 30.25 in 10.0 mi North 11.5 mph - N/A   Overcast
12:15 PM 45.1 °F 39.9 °F 34.3 °F 66% 30.23 in 10.0 mi NNE 10.4 mph - N/A   Overcast
12:35 PM 44.6 °F 38.8 °F 33.8 °F 66% 30.23 in 10.0 mi NE 11.5 mph - N/A   Mostly Cloudy
12:55 PM 45.5 °F 40.3 °F 34.5 °F 65% 30.23 in 10.0 mi NNE 10.4 mph - N/A   Scattered Clouds
1:15 PM 45.5 °F 40.3 °F 34.5 °F 65% 30.24 in 10.0 mi NNE 10.4 mph - N/A   Scattered Clouds
1:35 PM 45.5 °F 39.9 °F 34.7 °F 66% 30.25 in 10.0 mi NNE 11.5 mph - N/A   Mostly Cloudy
1:55 PM 45.7 °F 41.5 °F 34.9 °F 66% 30.26 in 10.0 mi NNE 8.1 mph - N/A   Mostly Cloudy
2:15 PM 45.0 °F 39.7 °F 34.7 °F 67% 30.26 in 10.0 mi NNE 10.4 mph - N/A   Overcast
2:35 PM 44.8 °F 39.0 °F 34.5 °F 67% 30.25 in 10.0 mi NNE 11.5 mph - N/A   Overcast
2:55 PM 44.8 °F 38.7 °F 34.5 °F 67% 30.26 in 10.0 mi NNE 12.7 mph - N/A   Overcast
3:15 PM 44.6 °F 39.2 °F 34.5 °F 68% 30.26 in 10.0 mi NNE 10.4 mph - N/A   Overcast
3:35 PM 44.6 °F 39.2 °F 34.7 °F 68% 30.26 in 10.0 mi NNE 10.4 mph - N/A   Overcast
3:55 PM 44.6 °F 40.2 °F 34.7 °F 68% 30.27 in 10.0 mi NE 8.1 mph - N/A   Overcast
4:15 PM 44.6 °F 41.4 °F 34.7 °F 68% 30.27 in 10.0 mi ENE 5.8 mph - N/A   Overcast
4:35 PM 44.2 °F 39.2 °F 34.9 °F 70% 30.28 in 10.0 mi NE 9.2 mph - N/A   Overcast
4:55 PM 44.6 °F 38.8 °F 35.6 °F 71% 30.27 in 10.0 mi NE 11.5 mph - N/A   Overcast
5:15 PM 43.7 °F 37.3 °F 34.7 °F 71% 30.27 in 10.0 mi NE 12.7 mph - N/A   Overcast
5:35 PM 43.2 °F 37.4 °F 34.7 °F 72% 30.27 in 10.0 mi NE 10.4 mph - N/A   Mostly Cloudy
5:55 PM 43.0 °F 36.0 °F 34.7 °F 73% 30.27 in 10.0 mi NE 13.8 mph - N/A   Mostly Cloudy
6:15 PM 42.8 °F 35.4 °F 34.7 °F 73% 30.27 in 10.0 mi NE 15.0 mph - N/A   Overcast
6:35 PM 42.8 °F 35.8 °F 34.2 °F 72% 30.27 in 10.0 mi NE 13.8 mph - N/A   Overcast
6:55 PM 42.3 °F 35.9 °F 34.2 °F 73% 30.27 in 10.0 mi NE 11.5 mph - N/A   Overcast
7:15 PM 42.8 °F 37.0 °F 33.8 °F 70% 30.27 in 10.0 mi ENE 10.4 mph - N/A   Overcast
7:35 PM 42.1 °F 37.1 °F 34.5 °F 75% 30.28 in 10.0 mi ENE 8.1 mph - N/A   Overcast
7:55 PM 42.1 °F 37.1 °F 34.2 °F 74% 30.29 in 10.0 mi ENE 8.1 mph - N/A   Overcast
8:15 PM 41.9 °F 36.9 °F 34.2 °F 74% 30.30 in 10.0 mi ENE 8.1 mph - N/A   Overcast
8:35 PM 41.0 °F 35.8 °F 35.6 °F 81% 30.30 in 10.0 mi ENE 8.1 mph - N/A   Light Drizzle
8:55 PM 41.0 °F 34.7 °F 35.6 °F 81% 30.29 in 10.0 mi ENE 10.4 mph - N/A   Drizzle
9:15 PM 40.6 °F 34.8 °F 35.6 °F 82% 30.28 in 10.0 mi ENE 9.2 mph - N/A Rain Light Rain
9:35 PM 40.5 °F 36.5 °F 35.6 °F 83% 30.29 in 10.0 mi NE 5.8 mph - N/A   Overcast
9:55 PM 40.3 °F 34.9 °F 35.1 °F 82% 30.28 in 10.0 mi ENE 8.1 mph - N/A   Light Drizzle
10:15 PM 40.3 °F 35.5 °F 35.2 °F 82% 30.28 in 10.0 mi ENE 6.9 mph - N/A   Mostly Cloudy
10:35 PM 40.3 °F 38.2 °F 34.9 °F 81% 30.30 in 10.0 mi ENE 3.5 mph - N/A   Mostly Cloudy
10:55 PM 40.3 °F 36.3 °F 34.9 °F 81% 30.29 in 10.0 mi NE 5.8 mph - N/A   Overcast
11:15 PM 40.1 °F 34.1 °F 34.7 °F 81% 30.28 in 10.0 mi NE 9.2 mph - N/A   Overcast
11:35 PM 40.1 °F 34.7 °F 35.1 °F 82% 30.28 in 10.0 mi NE 8.1 mph - N/A Rain Light Rain
11:55 PM 40.1 °F 35.3 °F 34.9 °F 82% 30.28 in 10.0 mi NE 6.9 mph - N/A Rain Light Rain